TimeEDT,TemperatureF,Dew PointF,Humidity,Sea Level PressureIn,VisibilityMPH,Wind Direction,Wind SpeedMPH,Gust SpeedMPH,PrecipitationIn,Events,Conditions,WindDirDegrees,DateUTC
12:15 AM,26.6,6.8,43,30.29,10.0,NNW,8.1,-,N/A,,Clear,340,2013-03-18 04:15:00
12:35 AM,24.8,6.8,46,30.29,10.0,North,9.2,-,N/A,,Clear,350,2013-03-18 04:35:00
12:55 AM,24.8,5.0,43,30.30,10.0,North,6.9,-,N/A,,Clear,10,2013-03-18 04:55:00
1:15 AM,24.8,5.0,43,30.31,10.0,North,10.4,-,N/A,,Clear,10,2013-03-18 05:15:00
1:55 AM,23.0,5.0,46,30.31,10.0,North,9.2,-,N/A,,Clear,10,2013-03-18 05:55:00
2:15 AM,23.0,5.0,46,30.31,10.0,North,9.2,-,N/A,,Clear,10,2013-03-18 06:15:00
2:35 AM,21.2,5.0,50,30.32,10.0,NNE,10.4,-,N/A,,Clear,20,2013-03-18 06:35:00
2:55 AM,23.0,3.2,43,30.32,10.0,NNE,8.1,-,N/A,,Clear,30,2013-03-18 06:55:00
3:15 AM,23.0,5.0,46,30.33,10.0,NE,6.9,-,N/A,,Clear,50,2013-03-18 07:15:00
3:35 AM,23.0,3.2,43,30.33,10.0,NE,6.9,-,N/A,,Clear,50,2013-03-18 07:35:00
4:15 AM,21.2,3.2,46,30.34,10.0,NE,5.8,-,N/A,,Clear,40,2013-03-18 08:15:00
4:35 AM,21.2,3.2,46,30.34,10.0,NE,9.2,-,N/A,,Clear,40,2013-03-18 08:35:00
4:55 AM,21.2,3.2,46,30.36,10.0,ENE,6.9,-,N/A,,Clear,70,2013-03-18 08:55:00
5:15 AM,21.2,3.2,46,30.36,10.0,ENE,8.1,-,N/A,,Clear,60,2013-03-18 09:15:00
5:35 AM,21.2,3.2,46,30.36,10.0,NE,6.9,-,N/A,,Clear,50,2013-03-18 09:35:00
5:45 AM,21.2,1.4,42,30.37,10.0,ENE,9.2,-,N/A,,Clear,60,2013-03-18 09:45:00
6:45 AM,21.2,1.4,42,30.38,10.0,ENE,5.8,-,N/A,,Clear,60,2013-03-18 10:45:00
7:45 AM,21.2,1.4,42,30.39,10.0,ENE,8.1,-,N/A,,Clear,70,2013-03-18 11:45:00
8:45 AM,23.0,1.4,39,30.40,10.0,East,11.5,-,N/A,,Clear,80,2013-03-18 12:45:00
9:45 AM,23.0,-0.4,36,30.38,10.0,East,11.5,-,N/A,,Clear,80,2013-03-18 13:45:00
10:45 AM,26.6,5.0,40,30.39,10.0,SE,5.8,-,N/A,,Clear,130,2013-03-18 14:45:00
11:45 AM,30.2,6.8,37,30.37,10.0,SE,4.6,-,N/A,,Clear,140,2013-03-18 15:45:00
12:45 PM,32.0,6.8,35,30.37,10.0,SE,5.8,-,N/A,,Clear,140,2013-03-18 16:45:00
1:45 PM,33.8,6.8,32,30.34,10.0,South,9.2,-,N/A,,Clear,190,2013-03-18 17:45:00
3:45 PM,33.8,8.6,35,30.27,10.0,ESE,9.2,-,N/A,,Overcast,120,2013-03-18 19:45:00
4:45 PM,33.8,10.4,38,30.25,10.0,SE,5.8,-,N/A,,Overcast,140,2013-03-18 20:45:00
5:47 PM,32.0,10.4,41,30.23,10.0,SSE,8.1,-,N/A,,Overcast,150,2013-03-18 21:47:00
6:45 PM,30.2,12.2,47,30.21,9.0,ESE,11.5,-,N/A,Snow,Light Snow,120,2013-03-18 22:45:00
7:18 PM,28.4,15.8,59,30.20,3.0,ESE,13.8,23.0,N/A,Snow,Light Snow,120,2013-03-18 23:18:00
7:45 PM,26.6,19.4,74,30.20,2.0,ESE,11.5,23.0,N/A,Snow,Light Snow,110,2013-03-18 23:45:00
8:55 PM,26.6,21.2,80,30.17,2.0,East,5.8,-,N/A,,Overcast,100,2013-03-19 00:55:00
9:15 PM,28.4,21.2,74,30.16,1.8,East,9.2,-,N/A,,Overcast,100,2013-03-19 01:15:00
9:35 PM,28.4,23.0,80,30.15,2.0,East,11.5,19.6,N/A,,Overcast,100,2013-03-19 01:35:00
10:35 PM,28.4,21.2,74,30.12,1.2,East,6.9,-,N/A,,Overcast,90,2013-03-19 02:35:00
11:55 PM,28.4,23.0,80,30.07,1.0,East,9.2,-,N/A,,Overcast,100,2013-03-19 03:55:00